This is the latest recevied weather packets stored in our database for station/object LA5PPA-1. If no packets are shown the sender has not sent any weather packets the latest 10 day(s).
| Time | Temp. | Humidity | Pressure | Rain* | Wind** | Luminosity | Snow |
|---|---|---|---|---|---|---|---|
| 1777632126 | 12.78° C | 35% | 1028 hPa | 0 mm | - | - | - |
| 1777631826 | 12.78° C | 35% | 1028 hPa | 0 mm | - | - | - |
| 1777631526 | 12.78° C | 35% | 1028.2 hPa | 0 mm | - | - | - |
| 1777631226 | 12.22° C | 35% | 1028.2 hPa | 0 mm | - | - | - |
| 1777630926 | 12.22° C | 36% | 1028.3 hPa | 0 mm | - | - | - |
| 1777630626 | 12.22° C | 36% | 1028.3 hPa | 0 mm | - | - | - |
| 1777630326 | 11.67° C | 35% | 1028.4 hPa | 0 mm | - | - | - |
| 1777630026 | 11.67° C | 36% | 1028.4 hPa | 0 mm | - | - | - |
| 1777629726 | 11.67° C | 35% | 1028.4 hPa | 0 mm | - | - | - |
| 1777629426 | 12.22° C | 35% | 1028.4 hPa | 0 mm | - | - | - |
| 1777629126 | 12.22° C | 36% | 1028.5 hPa | 0 mm | - | - | - |
| 1777628826 | 11.67° C | 35% | 1028.5 hPa | 0 mm | - | - | - |
| 1777628526 | 12.22° C | 36% | 1028.6 hPa | 0 mm | - | - | - |
| 1777628226 | 12.22° C | 36% | 1028.4 hPa | 0 mm | - | - | - |
| 1777627926 | 11.67° C | 37% | 1028.5 hPa | 0 mm | - | - | - |
| 1777627626 | 11.67° C | 38% | 1028.5 hPa | 0 mm | - | - | - |
| 1777627326 | 11.67° C | 37% | 1028.7 hPa | 0 mm | - | - | - |
| 1777627026 | 11.67° C | 37% | 1028.7 hPa | 0 mm | - | - | - |
| 1777626726 | 11.67° C | 39% | 1028.7 hPa | 0 mm | - | - | - |
| 1777626426 | 11.11° C | 37% | 1028.7 hPa | 0 mm | - | - | - |
| 1777626126 | 11.11° C | 38% | 1028.7 hPa | 0 mm | - | - | - |
| 1777625826 | 11.11° C | 39% | 1028.7 hPa | 0 mm | - | - | - |
| 1777625526 | 11.11° C | 37% | 1028.7 hPa | 0 mm | - | - | - |
| 1777625226 | 10.56° C | 40% | 1028.8 hPa | 0 mm | - | - | - |
| 1777624926 | 10.56° C | 43% | 1028.8 hPa | 0 mm | - | - | - |
* Rain latest hour (hover to see other rain measurements)
** Current wind speed in m/s (hover to see current wind gust speed)